Simultaneous Nadir Overpasses (SNOs) Predictions

Prediction of SNOs between METOP-B and TERRA Satellite Orbit:

Table of predicted SNOs for the next 14.0 days since TLE Epoch: 10/13/2018
Index Date (METOP-B) Time (METOP-B) Lat,Lon (METOP-B) SZA (METOP-B ) Date (TERRA) Time (TERRA) Lat,Lon (TERRA) SZA (TERRA ) Distance(km) Time Diff (sec)
1 10/15/2018 01:31:50 -81.31, 24.11 87.15 10/15/2018 01:32:44 -81.32, 24.25 87.11 2.49 54
2 10/15/2018 02:22:29 81.32,-168.01 92.93 10/15/2018 02:22:10 81.33,-168.00 92.93 0.90 19
3 10/17/2018 21:06:11 -81.31, 90.39 86.13 10/17/2018 21:06:57 -81.31, 90.55 86.08 2.63 46
4 10/17/2018 21:56:50 81.32,-101.73 93.96 10/17/2018 21:56:23 81.32,-101.72 93.95 0.11 27
5 10/20/2018 16:40:32 -81.32, 157.05 85.07 10/20/2018 16:41:11 -81.31, 156.89 85.08 2.72 39
6 10/20/2018 17:31:12 81.32, -35.46 94.97 10/20/2018 17:30:37 81.31, -35.41 94.95 1.10 35
7 10/23/2018 12:14:54 -81.31,-136.71 84.09 10/23/2018 12:15:25 -81.31,-136.72 84.08 0.86 31
8 10/23/2018 13:05:33 81.32, 31.18 96.00 10/23/2018 13:04:50 81.33, 31.33 96.00 2.73 43
9 10/26/2018 07:49:14 -81.32, -70.09 83.09 10/26/2018 07:49:37 -81.33, -69.92 83.05 3.13 23




NCC Satellite Simultaneous Nadir Overpasses (SNOs) Prediction Service
